Time,TemperatureF,DewpointF,PressureIn,WindDirection,WindDirectionDegrees,WindSpeedMPH,WindSpeedGustMPH,Humidity,HourlyPrecipIn,Conditions,Clouds,dailyrainin,SoftwareType,DateUTC
2013-02-08 00:02:00,36.0,32.0,29.93,South,177,1.0,5.0,84,0.00,,,0.26,,2013-02-08 05:02:00,
2013-02-08 00:12:00,36.0,32.0,29.93,South,177,1.0,5.0,84,0.00,,,0.26,,2013-02-08 05:12:00,
2013-02-08 00:22:00,36.0,32.0,29.93,SSE,162,1.0,5.0,85,0.01,,,0.27,,2013-02-08 05:22:00,
2013-02-08 00:32:00,37.0,33.0,29.93,South,182,2.0,6.0,84,0.01,,,0.27,,2013-02-08 05:32:00,
2013-02-08 00:42:00,37.0,33.0,29.93,South,182,2.0,6.0,84,0.01,,,0.27,,2013-02-08 05:42:00,
2013-02-08 00:52:00,37.0,33.0,29.92,WSW,258,1.0,5.0,84,0.01,,,0.27,,2013-02-08 05:52:00,
2013-02-08 01:02:00,36.0,32.0,29.91,South,174,1.0,7.0,85,0.01,,,0.27,,2013-02-08 06:02:00,
2013-02-08 01:11:00,36.0,32.0,29.91,South,174,1.0,7.0,85,0.01,,,0.27,,2013-02-08 06:11:00,
2013-02-08 01:22:00,36.0,32.0,29.91,SE,140,2.0,6.0,85,0.00,,,0.27,,2013-02-08 06:22:00,
2013-02-08 01:32:00,36.0,32.0,29.90,SSE,156,1.0,5.0,86,0.00,,,0.27,,2013-02-08 06:32:00,
2013-02-08 01:42:00,36.0,32.0,29.90,SSE,156,1.0,5.0,86,0.00,,,0.27,,2013-02-08 06:42:00,
2013-02-08 01:52:00,36.0,32.0,29.89,WSW,246,0.0,7.0,86,0.00,,,0.27,,2013-02-08 06:52:00,
2013-02-08 02:01:00,36.0,32.0,29.89,South,188,3.0,7.0,86,0.00,,,0.27,,2013-02-08 07:01:00,
2013-02-08 02:11:00,36.0,32.0,29.89,South,188,3.0,7.0,86,0.00,,,0.27,,2013-02-08 07:11:00,
2013-02-08 02:22:00,36.0,32.0,29.88,South,169,2.0,5.0,86,0.00,,,0.27,,2013-02-08 07:22:00,
2013-02-08 02:32:00,36.0,32.0,29.88,NNE,19,1.0,6.0,85,0.00,,,0.27,,2013-02-08 07:32:00,
2013-02-08 02:42:00,36.0,32.0,29.90,SSW,209,1.0,7.0,85,0.00,,,0.27,,2013-02-08 07:42:00,
2013-02-08 02:52:00,36.0,32.0,29.90,SSW,209,1.0,7.0,85,0.00,,,0.27,,2013-02-08 07:52:00,
2013-02-08 03:01:00,37.0,33.0,29.89,South,171,3.0,6.0,84,0.00,,,0.27,,2013-02-08 08:01:00,
2013-02-08 03:11:00,37.0,33.0,29.89,South,171,3.0,6.0,84,0.00,,,0.27,,2013-02-08 08:11:00,
2013-02-08 03:22:00,36.0,32.0,29.89,South,182,1.0,5.0,85,0.00,,,0.27,,2013-02-08 08:22:00,
2013-02-08 03:32:00,36.0,32.0,29.88,SSW,192,0.0,7.0,86,0.00,,,0.27,,2013-02-08 08:32:00,
2013-02-08 03:42:00,36.0,32.0,29.88,SSW,192,0.0,7.0,86,0.00,,,0.27,,2013-02-08 08:42:00,
2013-02-08 03:52:00,36.0,32.0,29.88,South,179,0.0,5.0,85,0.00,,,0.27,,2013-02-08 08:52:00,
2013-02-08 04:03:00,36.0,32.0,29.87,South,181,2.0,5.0,86,0.00,,,0.27,,2013-02-08 09:03:00,
2013-02-08 04:11:00,36.0,32.0,29.87,South,181,2.0,5.0,86,0.00,,,0.27,,2013-02-08 09:11:00,
2013-02-08 04:21:00,35.0,31.0,29.86,South,184,1.0,4.0,86,0.00,,,0.27,,2013-02-08 09:21:00,
2013-02-08 04:32:00,36.0,32.0,29.86,SE,138,2.0,6.0,86,0.00,,,0.27,,2013-02-08 09:32:00,
2013-02-08 04:42:00,36.0,32.0,29.86,SE,138,2.0,6.0,86,0.00,,,0.27,,2013-02-08 09:42:00,
2013-02-08 04:52:00,35.0,31.0,29.86,South,169,2.0,6.0,86,0.00,,,0.27,,2013-02-08 09:52:00,
2013-02-08 05:01:00,35.0,32.0,29.85,SSE,155,1.0,5.0,87,0.00,,,0.27,,2013-02-08 10:01:00,
2013-02-08 05:12:00,35.0,32.0,29.85,SSE,155,1.0,5.0,87,0.00,,,0.27,,2013-02-08 10:12:00,
2013-02-08 05:22:00,35.0,31.0,29.85,South,184,2.0,5.0,86,0.00,,,0.27,,2013-02-08 10:22:00,
2013-02-08 05:32:00,35.0,32.0,29.85,South,176,1.0,5.0,87,0.00,,,0.27,,2013-02-08 10:32:00,
2013-02-08 05:42:00,35.0,32.0,29.85,South,176,1.0,5.0,87,0.00,,,0.27,,2013-02-08 10:42:00,
2013-02-08 05:52:00,35.0,32.0,29.84,South,180,3.0,5.0,87,0.00,,,0.27,,2013-02-08 10:52:00,
2013-02-08 06:01:00,35.0,31.0,29.84,South,180,2.0,6.0,86,0.00,,,0.27,,2013-02-08 11:01:00,
2013-02-08 06:11:00,35.0,31.0,29.84,South,180,2.0,6.0,86,0.00,,,0.27,,2013-02-08 11:11:00,
2013-02-08 06:22:00,36.0,32.0,29.83,SSE,168,2.0,6.0,85,0.00,,,0.27,,2013-02-08 11:22:00,
2013-02-08 06:32:00,35.0,31.0,29.83,SSE,159,3.0,5.0,86,0.00,,,0.27,,2013-02-08 11:32:00,
2013-02-08 06:42:00,35.0,31.0,29.83,SSE,159,3.0,5.0,86,0.00,,,0.27,,2013-02-08 11:42:00,
2013-02-08 06:52:00,35.0,31.0,29.83,South,189,3.0,5.0,85,0.00,,,0.27,,2013-02-08 11:52:00,
2013-02-08 07:02:00,35.0,31.0,29.83,SSE,159,1.0,7.0,86,0.00,,,0.27,,2013-02-08 12:02:00,
2013-02-08 07:11:00,35.0,31.0,29.83,SSE,159,1.0,7.0,86,0.00,,,0.27,,2013-02-08 12:11:00,
2013-02-08 07:22:00,35.0,31.0,29.82,SSW,206,1.0,6.0,86,0.00,,,0.27,,2013-02-08 12:22:00,
2013-02-08 07:33:00,35.0,31.0,29.82,South,174,3.0,5.0,86,0.00,,,0.27,,2013-02-08 12:33:00,
2013-02-08 07:42:00,35.0,31.0,29.82,South,174,3.0,5.0,86,0.00,,,0.27,,2013-02-08 12:42:00,
2013-02-08 07:52:00,34.0,31.0,29.82,South,177,2.0,5.0,87,0.00,,,0.27,,2013-02-08 12:52:00,
2013-02-08 08:02:00,35.0,32.0,29.83,ESE,117,0.0,5.0,87,0.00,,,0.27,,2013-02-08 13:02:00,
2013-02-08 08:12:00,35.0,32.0,29.83,ESE,117,0.0,5.0,87,0.00,,,0.27,,2013-02-08 13:12:00,
2013-02-08 08:22:00,35.0,31.0,29.83,SSE,150,1.0,4.0,86,0.00,,,0.27,,2013-02-08 13:22:00,
2013-02-08 08:32:00,36.0,32.0,29.82,South,175,0.0,4.0,86,0.00,,,0.27,,2013-02-08 13:32:00,
2013-02-08 08:42:00,36.0,32.0,29.82,South,175,0.0,4.0,86,0.00,,,0.27,,2013-02-08 13:42:00,
2013-02-08 08:52:00,36.0,32.0,29.81,SSE,152,0.0,2.0,85,0.00,,,0.27,,2013-02-08 13:52:00,
2013-02-08 09:02:00,37.0,33.0,29.80,SSE,155,1.0,4.0,85,0.00,,,0.27,,2013-02-08 14:02:00,
2013-02-08 09:11:00,37.0,33.0,29.80,SSE,155,1.0,4.0,85,0.00,,,0.27,,2013-02-08 14:11:00,
2013-02-08 09:22:00,37.0,32.0,29.79,SSE,167,0.0,3.0,83,0.00,,,0.27,,2013-02-08 14:22:00,
2013-02-08 09:32:00,38.0,33.0,29.79,South,173,0.0,6.0,83,0.00,,,0.27,,2013-02-08 14:32:00,
2013-02-08 09:42:00,38.0,33.0,29.79,South,173,0.0,6.0,83,0.00,,,0.27,,2013-02-08 14:42:00,
2013-02-08 09:52:00,38.0,33.0,29.79,SE,144,0.0,4.0,82,0.00,,,0.27,,2013-02-08 14:52:00,
2013-02-08 10:02:00,39.0,34.0,29.79,SSE,153,0.0,4.0,81,0.00,,,0.27,,2013-02-08 15:02:00,
2013-02-08 10:12:00,39.0,34.0,29.79,SSE,153,0.0,4.0,81,0.00,,,0.27,,2013-02-08 15:12:00,
2013-02-08 10:22:00,39.0,35.0,29.80,SSE,149,0.0,3.0,85,0.02,,,0.29,,2013-02-08 15:22:00,
2013-02-08 10:32:00,39.0,35.0,29.80,East,94,0.0,4.0,86,0.03,,,0.30,,2013-02-08 15:32:00,
2013-02-08 10:42:00,39.0,35.0,29.80,East,94,0.0,4.0,86,0.03,,,0.30,,2013-02-08 15:42:00,
2013-02-08 10:52:00,39.0,36.0,29.81,West,261,1.0,6.0,88,0.04,,,0.31,,2013-02-08 15:52:00,
2013-02-08 11:02:00,39.0,36.0,29.82,West,259,7.0,12.0,90,0.05,,,0.32,,2013-02-08 16:02:00,
2013-02-08 11:11:00,39.0,36.0,29.82,West,259,7.0,12.0,90,0.05,,,0.32,,2013-02-08 16:11:00,
2013-02-08 11:22:00,39.0,36.0,29.82,WNW,286,6.0,16.0,90,0.05,,,0.34,,2013-02-08 16:22:00,
2013-02-08 11:32:00,38.0,36.0,29.81,West,264,3.0,9.0,91,0.06,,,0.36,,2013-02-08 16:32:00,
2013-02-08 11:42:00,38.0,36.0,29.81,West,264,3.0,9.0,91,0.06,,,0.36,,2013-02-08 16:42:00,
2013-02-08 11:52:00,38.0,36.0,29.80,WSW,254,7.0,11.0,91,0.07,,,0.38,,2013-02-08 16:52:00,
2013-02-08 12:04:00,38.0,36.0,29.80,West,271,4.0,8.0,91,0.06,,,0.38,,2013-02-08 17:04:00,
2013-02-08 12:12:00,38.0,36.0,29.80,West,271,4.0,8.0,91,0.06,,,0.38,,2013-02-08 17:12:00,
2013-02-08 12:23:00,38.0,36.0,29.80,WSW,254,4.0,9.0,92,0.04,,,0.38,,2013-02-08 17:23:00,
2013-02-08 12:33:00,38.0,36.0,29.80,West,265,3.0,9.0,92,0.02,,,0.38,,2013-02-08 17:33:00,
2013-02-08 12:42:00,38.0,36.0,29.80,West,265,3.0,9.0,92,0.02,,,0.38,,2013-02-08 17:42:00,
2013-02-08 12:53:00,38.0,36.0,29.80,WSW,254,14.0,19.0,93,0.00,,,0.38,,2013-02-08 17:53:00,
2013-02-08 13:02:00,37.0,35.0,29.80,West,277,16.0,24.0,93,0.01,,,0.39,,2013-02-08 18:02:00,
2013-02-08 13:12:00,37.0,35.0,29.80,West,277,16.0,24.0,93,0.01,,,0.39,,2013-02-08 18:12:00,
2013-02-08 13:25:00,36.0,34.0,29.80,West,266,16.0,29.0,92,0.01,,,0.39,,2013-02-08 18:25:00,
2013-02-08 13:35:00,35.0,33.0,29.82,WNW,284,17.0,29.0,91,0.01,,,0.39,,2013-02-08 18:35:00,
2013-02-08 13:43:00,35.0,33.0,29.82,WNW,284,17.0,29.0,91,0.01,,,0.39,,2013-02-08 18:43:00,
2013-02-08 13:53:00,35.0,32.0,29.82,West,267,10.0,22.0,90,0.01,,,0.39,,2013-02-08 18:53:00,
2013-02-08 14:02:00,35.0,32.0,29.82,WNW,284,13.0,21.0,89,0.00,,,0.30,,2013-02-08 19:02:00,
2013-02-08 14:12:00,35.0,32.0,29.82,WNW,284,13.0,21.0,89,0.00,,,0.30,,2013-02-08 19:12:00,
2013-02-08 14:22:00,34.0,31.0,29.83,WNW,289,18.0,25.0,89,0.00,,,0.30,,2013-02-08 19:22:00,
2013-02-08 14:32:00,34.0,31.0,29.84,WNW,288,14.0,27.0,88,0.00,,,0.30,,2013-02-08 19:32:00,
2013-02-08 14:42:00,34.0,31.0,29.84,WNW,288,14.0,27.0,88,0.00,,,0.30,,2013-02-08 19:42:00,
2013-02-08 14:52:00,34.0,31.0,29.84,WNW,283,15.0,24.0,88,0.00,,,0.30,,2013-02-08 19:52:00,
2013-02-08 15:02:00,33.0,30.0,29.85,WSW,255,14.0,22.0,88,0.00,,,0.21,,2013-02-08 20:02:00,
2013-02-08 15:12:00,33.0,30.0,29.85,WSW,255,14.0,22.0,88,0.00,,,0.21,,2013-02-08 20:12:00,
2013-02-08 15:22:00,33.0,30.0,29.86,West,269,15.0,29.0,88,0.00,,,0.21,,2013-02-08 20:22:00,
2013-02-08 15:32:00,32.0,29.0,29.87,WNW,282,14.0,28.0,87,0.00,,,0.21,,2013-02-08 20:32:00,
2013-02-08 15:42:00,32.0,29.0,29.87,WNW,282,14.0,28.0,87,0.00,,,0.21,,2013-02-08 20:42:00,
2013-02-08 15:52:00,32.0,29.0,29.88,WNW,292,18.0,29.0,87,0.00,,,0.21,,2013-02-08 20:52:00,
2013-02-08 16:02:00,31.0,28.0,29.88,West,264,16.0,32.0,87,0.00,,,0.17,,2013-02-08 21:02:00,
2013-02-08 16:12:00,31.0,28.0,29.88,West,264,16.0,32.0,87,0.00,,,0.17,,2013-02-08 21:12:00,
2013-02-08 16:22:00,31.0,28.0,29.89,WNW,301,8.0,18.0,88,0.00,,,0.17,,2013-02-08 21:22:00,
2013-02-08 16:32:00,30.0,27.0,29.90,WNW,303,15.0,22.0,88,0.00,,,0.17,,2013-02-08 21:32:00,
2013-02-08 16:42:00,30.0,27.0,29.90,WNW,303,15.0,22.0,88,0.00,,,0.17,,2013-02-08 21:42:00,
2013-02-08 16:52:00,30.0,27.0,29.91,WNW,284,14.0,25.0,88,0.00,,,0.17,,2013-02-08 21:52:00,
2013-02-08 17:02:00,30.0,27.0,29.91,West,259,13.0,23.0,87,0.00,,,0.14,,2013-02-08 22:02:00,
2013-02-08 17:11:00,30.0,27.0,29.91,West,259,13.0,23.0,87,0.00,,,0.14,,2013-02-08 22:11:00,
2013-02-08 17:22:00,30.0,26.0,29.93,WNW,297,12.0,21.0,86,0.00,,,0.14,,2013-02-08 22:22:00,
2013-02-08 17:32:00,30.0,27.0,29.93,West,274,16.0,24.0,87,0.00,,,0.14,,2013-02-08 22:32:00,
2013-02-08 17:42:00,30.0,27.0,29.93,West,274,16.0,24.0,87,0.00,,,0.14,,2013-02-08 22:42:00,
2013-02-08 17:52:00,29.0,26.0,29.95,NW,311,15.0,24.0,87,0.00,,,0.14,,2013-02-08 22:52:00,
2013-02-08 18:01:00,29.0,26.0,29.96,NW,321,12.0,19.0,88,0.00,,,0.13,,2013-02-08 23:01:00,
2013-02-08 18:11:00,29.0,26.0,29.96,NW,321,12.0,19.0,88,0.00,,,0.13,,2013-02-08 23:11:00,
2013-02-08 18:22:00,29.0,26.0,29.96,WNW,294,14.0,27.0,89,0.00,,,0.13,,2013-02-08 23:22:00,
2013-02-08 18:32:00,28.0,25.0,29.97,West,260,13.0,22.0,88,0.00,,,0.13,,2013-02-08 23:32:00,
2013-02-08 18:42:00,28.0,25.0,29.97,West,260,13.0,22.0,88,0.00,,,0.13,,2013-02-08 23:42:00,
2013-02-08 18:52:00,28.0,25.0,29.99,West,281,14.0,28.0,88,0.00,,,0.13,,2013-02-08 23:52:00,
2013-02-08 19:02:00,27.0,24.0,30.00,NW,322,12.0,18.0,88,0.00,,,0.13,,2013-02-09 00:02:00,
2013-02-08 19:12:00,27.0,24.0,30.00,NW,322,12.0,18.0,88,0.00,,,0.13,,2013-02-09 00:12:00,
2013-02-08 19:22:00,27.0,23.0,30.01,WNW,290,12.0,23.0,86,0.00,,,0.13,,2013-02-09 00:22:00,
2013-02-08 19:32:00,27.0,23.0,30.02,WNW,285,14.0,19.0,86,0.00,,,0.13,,2013-02-09 00:32:00,
2013-02-08 19:42:00,27.0,23.0,30.02,WNW,285,14.0,19.0,86,0.00,,,0.13,,2013-02-09 00:42:00,
2013-02-08 19:52:00,27.0,23.0,30.03,NNW,328,15.0,26.0,85,0.00,,,0.13,,2013-02-09 00:52:00,
2013-02-08 20:02:00,27.0,22.0,30.01,NW,304,13.0,24.0,82,0.00,,,0.13,,2013-02-09 01:02:00,
2013-02-08 20:11:00,27.0,22.0,30.01,NW,304,13.0,24.0,82,0.00,,,0.13,,2013-02-09 01:11:00,
2013-02-08 20:22:00,27.0,22.0,30.01,WNW,301,17.0,25.0,81,0.00,,,0.13,,2013-02-09 01:22:00,
2013-02-08 20:32:00,27.0,22.0,30.01,NW,316,15.0,25.0,81,0.00,,,0.13,,2013-02-09 01:32:00,
2013-02-08 20:42:00,27.0,22.0,30.01,NW,316,15.0,25.0,81,0.00,,,0.13,,2013-02-09 01:42:00,
2013-02-08 20:52:00,27.0,22.0,30.02,WNW,288,10.0,24.0,80,0.00,,,0.13,,2013-02-09 01:52:00,
2013-02-08 21:01:00,26.0,21.0,30.03,NNW,340,16.0,25.0,80,0.00,,,0.13,,2013-02-09 02:01:00,
2013-02-08 21:11:00,26.0,21.0,30.03,NNW,340,16.0,25.0,80,0.00,,,0.13,,2013-02-09 02:11:00,
2013-02-08 21:22:00,26.0,21.0,30.03,NW,306,18.0,24.0,81,0.00,,,0.13,,2013-02-09 02:22:00,
2013-02-08 21:32:00,26.0,21.0,30.04,NW,306,9.0,23.0,82,0.00,,,0.13,,2013-02-09 02:32:00,
2013-02-08 21:42:00,26.0,21.0,30.04,NW,306,9.0,23.0,82,0.00,,,0.13,,2013-02-09 02:42:00,
2013-02-08 21:53:00,26.0,21.0,30.05,West,265,19.0,29.0,82,0.00,,,0.13,,2013-02-09 02:53:00,
2013-02-08 22:02:00,25.0,21.0,30.06,NW,321,20.0,33.0,83,0.00,,,0.13,,2013-02-09 03:02:00,
2013-02-08 22:11:00,25.0,21.0,30.06,NW,321,20.0,33.0,83,0.00,,,0.13,,2013-02-09 03:11:00,
2013-02-08 22:22:00,25.0,21.0,30.07,WNW,300,15.0,24.0,83,0.00,,,0.13,,2013-02-09 03:22:00,
2013-02-08 22:32:00,25.0,21.0,30.07,WNW,292,13.0,21.0,83,0.00,,,0.13,,2013-02-09 03:32:00,
2013-02-08 22:42:00,25.0,21.0,30.07,WNW,292,13.0,21.0,83,0.00,,,0.13,,2013-02-09 03:42:00,
2013-02-08 22:53:00,25.0,21.0,30.08,NW,307,17.0,22.0,84,0.00,,,0.13,,2013-02-09 03:53:00,
2013-02-08 23:03:00,25.0,21.0,30.08,NW,318,13.0,23.0,84,0.00,,,0.13,,2013-02-09 04:03:00,
2013-02-08 23:12:00,25.0,21.0,30.08,NW,318,13.0,23.0,84,0.00,,,0.13,,2013-02-09 04:12:00,
2013-02-08 23:23:00,24.0,20.0,30.08,North,355,16.0,26.0,84,0.00,,,0.13,,2013-02-09 04:23:00,
2013-02-08 23:32:00,24.0,20.0,30.09,NW,305,12.0,20.0,85,0.00,,,0.13,,2013-02-09 04:32:00,
2013-02-08 23:42:00,24.0,20.0,30.09,NW,305,12.0,20.0,85,0.00,,,0.13,,2013-02-09 04:42:00,
2013-02-08 23:52:00,24.0,20.0,30.10,NNW,331,13.0,21.0,85,0.00,,,0.13,,2013-02-09 04:52:00,